Hourly Weather Roundup
Issued by NWS Central Illinois

Home | Current Version | Previous Version | Text Only | Print | Product List | Glossary On
Versions: 1 2 3 4 5 6 7 8 9 10 11 12 13 14 15 16 17 18 19 20 21 22 23 24 25 26 27 28 29 30 31 32 33 34 35 36 37 38 39 40 41 42 43 44 45 46 47 48 49 50
000
NZUS43 KILX 031910
HWRILX

AREA WEATHER ROUNDUP
NATIONAL WEATHER SERVICE, LINCOLN IL
200 PM CDT TUE MAY 03 2016


CITY           SKY/WX    TMP DP  RH WIND       PRES   REMARKS
BLOOMINGTON    PTSUNNY   65  42  43 NW9       29.94F
CHAMPAIGN      PTSUNNY   65  42  43 N8        29.93F
DANVILLE       PTSUNNY   63  39  41 NW6       29.90F
DECATUR        CLOUDY    62  41  46 NW9       29.96F
EFFINGHAM      CLOUDY    62  43  49 NW12      29.98F
FLORA          CLOUDY    63  41  45 NW9       29.97F
GALESBURG      PTSUNNY   66  40  39 W15       29.95F
JACKSONVILLE   PTSUNNY   64  42  44 W8        29.97F
LACON          PTSUNNY   66  39  37 NW12G17   29.92F
LAWRENCEVILLE  CLOUDY    60  44  55 NW10      29.96F
LITCHFIELD     PTSUNNY   60  41  50 N8        29.98F
$$


CITY           SKY/WX    TMP DP  RH WIND       PRES   REMARKS
LINCOLN        CLOUDY    65  42  43 NW6       29.95F
MACOMB         MOSUNNY   66  40  38 NW12      29.99F
MATTOON        PTSUNNY   63  39  41 NW9       29.95F
MT CARMEL AP   CLOUDY    61  43  51 NW8       29.96F
OLNEY-NOBLE AP PTSUNNY   61  43  51 N6        29.97F
PARIS          PTSUNNY   62  42  47 NW7       29.94F
PEORIA         CLOUDY    63  37  38 NW8       29.94F
PONTIAC        CLOUDY    66  43  44 NW6       29.92F
RANTOUL        PTSUNNY   65  42  43 N12       29.92F
ROBINSON       CLOUDY    58  45  60 N8        29.96F
SPRINGFIELD    CLOUDY    65  40  39 CALM      29.97F
TAYLORVILLE    CLOUDY    62  42  48 SW7       29.97F
$$

...REGIONAL REPORTS...


CITY           SKY/WX    TMP DP  RH WIND       PRES   REMARKS
CHICAGO O`HARE PTSUNNY   64  38  38 W10       29.86F
KANKAKEE       PTSUNNY   64  38  37 NW7       29.90F
MOLINE         PTSUNNY   68  38  33 W15G23    29.91F
MOUNT STERLING PTSUNNY   63  42  45 W12       29.98F
MOUNT VERNON   CLOUDY    61  43  51 N5        29.99F
PITTSFIELD     CLOUDY    63  40  43 W7        30.00F
QUINCY         MOSUNNY   65  40  39 W9        29.98F
ROCKFORD       PTSUNNY   66  39  37 W15G22    29.89F
$$


CITY           SKY/WX    TMP DP  RH WIND       PRES   REMARKS
BURLINGTON     PTSUNNY   66  42  41 SW10G17   29.95F
CEDAR RAPIDS   MOSUNNY   66  44  45 W14       29.91F
DES MOINES     PTSUNNY   69  37  30 W12G23    29.96F
KIRKSVILLE     MOSUNNY   67  40  37 W10       30.00F
OTTUMWA        MOSUNNY   66  42  41 W7        29.96F
ST LOUIS       CLOUDY    65  39  38 N8        30.00F
$$


CITY           SKY/WX    TMP DP  RH WIND       PRES   REMARKS
TERRE HAUTE    PTSUNNY   62  40  44 NW8       29.93F
EVANSVILLE     CLOUDY    61  44  53 N12       29.97F
INDIANAPOLIS   CLOUDY    56  48  74 NE7       29.92F
LAFAYETTE      PTSUNNY   63  40  42 NW10G18   29.91F
MADISON        PTSUNNY   67  36  31 W12G18    29.82F
MILWAUKEE      CLOUDY    65  32  29 W10G22    29.82F
$$






USA.gov is the U.S. government's official web portal to all federal, state and local government web resources and services.